Location: *
(58.4167°N, 22.5000°E)
Time: 05:47:01
(UTC+00:00)

Cosmos 2082 Rocket - Pass Details

Date: 22 September 2019
Orbit: 831 x 855 km, 71.0° (Epoch: 16 October)

Event Time Altitude Azimuth Distance (km) Brightness Sun altitude
Rises 21:28:23 0° 320° (NW) 3,437 6.3 -30.4°
Reaches altitude 10° 21:30:53 10° 324° (NW) 2,500 5.4 -30.5°
Enters shadow 21:36:20 60° 32° (NNE) 983 2.6 -30.7°
